Precipitable_Water
0.39 0.39 0.39 0.39 0.39 0.39 0.40 0.40 0.42 0.42 0.43 0.45 0.47 0.50 0.52 0.55 0.57 0.59 0.60 0.59 0.57 0.53 0.49 0.46 0.46 0.46 0.46 0.45 0.43 0.41 0.39 0.38 0.37 0.36 0.35 0.34 0.33 0.32 0.32 0.31 0.31 0.31
0.38 0.38 0.38 0.38 0.39 0.40 0.41 0.42 0.43 0.44 0.45 0.46 0.47 0.50 0.52 0.53 0.54 0.54 0.54 0.53 0.52 0.49 0.47 0.47 0.47 0.48 0.48 0.47 0.46 0.44 0.42 0.41 0.40 0.40 0.38 0.37 0.36 0.35 0.34 0.34 0.33 0.33
0.38 0.38 0.38 0.37 0.38 0.38 0.39 0.40 0.41 0.42 0.43 0.45 0.47 0.48 0.48 0.50 0.51 0.52 0.53 0.52 0.51 0.50 0.49 0.49 0.49 0.49 0.48 0.48 0.47 0.46 0.45 0.44 0.43 0.42 0.41 0.39 0.38 0.37 0.36 0.36 0.35 0.35
0.37 0.38 0.38 0.38 0.39 0.39 0.39 0.39 0.40 0.40 0.41 0.42 0.43 0.45 0.47 0.47 0.48 0.48 0.49 0.50 0.49 0.49 0.49 0.49 0.48 0.48 0.48 0.48 0.47 0.46 0.46 0.45 0.45 0.44 0.43 0.42 0.40 0.39 0.38 0.37 0.36 0.36
0.35 0.36 0.37 0.38 0.39 0.40 0.40 0.40 0.40 0.41 0.41 0.42 0.43 0.44 0.45 0.46 0.47 0.47 0.47 0.48 0.48 0.48 0.48 0.48 0.48 0.48 0.48 0.47 0.47 0.46 0.46 0.46 0.46 0.45 0.44 0.43 0.42 0.41 0.40 0.39 0.38 0.37
0.33 0.33 0.34 0.35 0.36 0.37 0.38 0.39 0.40 0.41 0.42 0.42 0.42 0.43 0.43 0.44 0.45 0.46 0.47 0.47 0.47 0.47 0.47 0.48 0.48 0.48 0.48 0.47 0.47 0.46 0.46 0.45 0.45 0.44 0.43 0.43 0.42 0.42 0.41 0.40 0.39 0.38
0.30 0.30 0.30 0.31 0.31 0.32 0.32 0.33 0.35 0.36 0.38 0.40 0.41 0.42 0.43 0.43 0.43 0.43 0.43 0.44 0.44 0.45 0.45 0.45 0.45 0.45 0.46 0.46 0.45 0.44 0.44 0.44 0.43 0.43 0.42 0.41 0.41 0.40 0.40 0.40 0.39 0.38
0.28 0.28 0.29 0.29 0.29 0.29 0.29 0.30 0.30 0.31 0.32 0.33 0.33 0.35 0.36 0.37 0.38 0.39 0.39 0.39 0.39 0.40 0.40 0.41 0.41 0.42 0.42 0.42 0.41 0.41 0.41 0.41 0.40 0.40 0.39 0.39 0.39 0.38 0.38 0.38 0.37 0.36
0.27 0.27 0.27 0.27 0.27 0.28 0.28 0.28 0.29 0.29 0.30 0.30 0.30 0.30 0.31 0.31 0.32 0.33 0.33 0.34 0.34 0.34 0.34 0.35 0.35 0.36 0.36 0.37 0.37 0.37 0.37 0.37 0.37 0.37 0.36 0.36 0.35 0.35 0.35 0.35 0.34 0.33
0.26 0.26 0.27 0.27 0.27 0.27 0.27 0.28 0.28 0.28 0.29 0.29 0.29 0.29 0.29 0.30 0.30 0.30 0.30 0.30 0.30 0.30 0.31 0.31 0.31 0.32 0.32 0.32 0.33 0.33 0.33 0.34 0.34 0.34 0.34 0.33 0.33 0.32 0.32 0.32 0.31 0.30
0.25 0.25 0.25 0.26 0.26 0.27 0.27 0.27 0.28 0.28 0.29 0.29 0.29 0.28 0.29 0.29 0.29 0.29 0.29 0.29 0.29 0.29 0.29 0.29 0.29 0.29 0.30 0.30 0.30 0.31 0.31 0.31 0.31 0.32 0.31 0.31 0.31 0.31 0.31 0.30 0.30 0.29
0.25 0.24 0.24 0.24 0.24 0.25 0.25 0.25 0.26 0.26 0.27 0.27 0.27 0.27 0.27 0.28 0.28 0.28 0.28 0.28 0.28 0.28 0.28 0.28 0.27 0.27 0.27 0.27 0.27 0.27 0.27 0.27 0.27 0.27 0.27 0.27 0.27 0.27 0.27 0.27 0.27 0.26
0.23 0.23 0.23 0.23 0.23 0.23 0.23 0.23 0.24 0.24 0.24 0.24 0.25 0.25 0.25 0.25 0.26 0.26 0.27 0.27 0.27 0.27 0.27 0.27 0.27 0.27 0.27 0.27 0.27 0.26 0.26 0.26 0.25 0.25 0.25 0.25 0.25 0.25 0.26 0.25 0.25 0.25
0.22 0.22 0.22 0.22 0.22 0.22 0.22 0.22 0.22 0.22 0.22 0.22 0.23 0.23 0.23 0.23 0.24 0.24 0.24 0.25 0.25 0.25 0.26 0.26 0.26 0.26 0.26 0.27 0.27 0.27 0.26 0.25 0.25 0.25 0.25 0.24 0.24 0.24 0.24 0.25 0.25 0.25
0.23 0.23 0.22 0.22 0.22 0.21 0.21 0.21 0.21 0.21 0.21 0.21 0.21 0.21 0.22 0.22 0.22 0.23 0.23 0.23 0.24 0.24 0.24 0.24 0.24 0.24 0.24 0.25 0.25 0.26 0.27 0.26 0.25 0.25 0.24 0.24 0.24 0.24 0.24 0.24 0.24 0.24
0.22 0.22 0.22 0.22 0.21 0.21 0.21 0.21 0.20 0.20 0.20 0.20 0.20 0.21 0.21 0.21 0.21 0.21 0.21 0.21 0.21 0.21 0.22 0.23 0.23 0.23 0.24 0.25 0.26 0.25 0.25 0.25 0.25 0.25 0.24 0.24 0.24 0.24 0.24 0.24 0.25 0.25
0.21 0.21 0.21 0.21 0.21 0.21 0.21 0.20 0.20 0.20 0.20 0.20 0.20 0.21 0.21 0.21 0.21 0.21 0.20 0.21 0.20 0.20 0.20 0.19 0.20 0.20 0.22 0.23 0.24 0.25 0.25 0.25 0.24 0.24 0.24 0.23 0.23 0.23 0.23 0.23 0.24 0.25
0.21 0.21 0.20 0.20 0.20 0.20 0.20 0.20 0.20 0.20 0.19 0.19 0.19 0.20 0.20 0.20 0.20 0.20 0.20 0.20 0.20 0.20 0.19 0.19 0.19 0.19 0.20 0.21 0.22 0.23 0.24 0.24 0.24 0.23 0.23 0.23 0.23 0.23 0.22 0.22 0.22 0.23
0.20 0.20 0.19 0.19 0.20 0.20 0.20 0.20 0.20 0.19 0.19 0.19 0.19 0.20 0.20 0.20 0.20 0.19 0.19 0.19 0.19 0.19 0.19 0.19 0.19 0.20 0.20 0.21 0.21 0.22 0.23 0.23 0.23 0.23 0.22 0.22 0.22 0.22 0.22 0.22 0.22 0.22
0.18 0.18 0.18 0.18 0.18 0.18 0.18 0.18 0.18 0.18 0.18 0.19 0.19 0.19 0.19 0.19 0.20 0.19 0.20 0.19 0.19 0.19 0.20 0.20 0.20 0.20 0.20 0.21 0.21 0.21 0.22 0.23 0.23 0.23 0.22 0.22 0.21 0.21 0.21 0.21 0.21 0.21
0.16 0.16 0.16 0.16 0.16 0.16 0.16 0.16 0.17 0.17 0.17 0.17 0.18 0.18 0.18 0.18 0.18 0.18 0.18 0.19 0.19 0.20 0.20 0.20 0.21 0.20 0.20 0.21 0.21 0.22 0.22 0.22 0.22 0.22 0.21 0.21 0.21 0.21 0.21 0.20 0.20 0.21
0.14 0.14 0.14 0.14 0.14 0.14 0.14 0.14 0.15 0.15 0.15 0.15 0.16 0.16 0.16 0.17 0.16 0.16 0.16 0.16 0.17 0.18 0.18 0.18 0.18 0.18 0.19 0.20 0.21 0.21 0.22 0.22 0.22 0.21 0.21 0.21 0.20 0.20 0.20 0.20 0.21 0.20
0.13 0.12 0.12 0.12 0.12 0.12 0.12 0.12 0.13 0.13 0.13 0.14 0.14 0.14 0.14 0.14 0.14 0.14 0.15 0.15 0.15 0.15 0.15 0.15 0.16 0.17 0.18 0.19 0.19 0.20 0.20 0.21 0.21 0.21 0.20 0.20 0.20 0.20 0.21 0.20 0.20 0.20
0.11 0.11 0.11 0.11 0.11 0.11 0.11 0.11 0.11 0.11 0.11 0.12 0.12 0.12 0.12 0.12 0.13 0.13 0.13 0.13 0.13 0.13 0.14 0.14 0.15 0.16 0.17 0.17 0.17 0.18 0.18 0.18 0.18 0.18 0.18 0.18 0.19 0.19 0.19 0.19 0.19 0.19
0.11 0.10 0.10 0.10 0.09 0.09 0.09 0.09 0.09 0.09 0.10 0.10 0.11 0.11 0.10 0.11 0.11 0.11 0.11 0.11 0.12 0.12 0.13 0.14 0.14 0.14 0.14 0.14 0.15 0.16 0.16 0.16 0.16 0.16 0.16 0.16 0.17 0.17 0.18 0.18 0.18 0.17
0.10 0.09 0.09 0.09 0.08 0.08 0.08 0.08 0.08 0.08 0.08 0.09 0.09 0.09 0.09 0.09 0.09 0.09 0.09 0.10 0.10 0.11 0.11 0.12 0.11 0.12 0.12 0.12 0.13 0.14 0.14 0.15 0.15 0.14 0.14 0.14 0.15 0.15 0.15 0.16 0.16 0.16
Wind_Speed
33 33 34 34 35 35 35 35 36 36 37 38 38 39 39 40 41 42 43 44 44 44 44 44 43 43 43 43 44 44 44 44 44 44 44 44 44 44 44 44 44 43
32 33 33 33 34 34 34 34 35 35 36 36 37 37 38 38 38 39 41 42 43 43 43 44 43 43 43 43 43 44 44 45 45 44 44 45 44 44 44 44 44 44
32 32 32 33 33 33 34 34 34 34 35 35 36 37 37 37 38 38 39 40 41 41 42 43 43 44 43 43 43 43 44 44 45 45 45 45 45 45 45 45 45 45
30 31 32 32 33 33 33 33 34 34 34 35 35 36 36 37 37 38 39 39 40 41 42 42 43 43 43 43 43 43 43 44 44 45 45 45 45 46 46 46 46 46
28 29 30 31 31 32 32 33 33 34 34 35 35 35 36 36 37 37 38 39 39 40 41 41 41 42 42 42 43 43 43 44 44 44 45 45 45 46 46 46 47 47
26 27 28 29 29 30 31 31 32 33 34 34 35 35 35 36 36 37 37 37 38 38 39 39 39 40 40 41 42 43 43 43 44 44 45 45 46 46 46 47 47 47
24 24 25 26 27 28 29 29 30 31 32 33 34 34 35 35 35 36 36 37 37 38 38 39 39 40 40 40 41 42 43 43 44 44 45 45 45 46 46 46 47 47
23 23 24 25 25 26 27 28 29 29 30 31 32 32 33 34 34 35 36 36 37 37 38 39 40 40 40 41 41 42 42 43 43 44 45 45 45 46 46 46 46 46
23 24 24 25 25 26 27 27 28 28 29 30 30 31 31 32 33 33 34 35 35 36 37 38 39 40 41 41 42 42 43 43 43 44 44 44 44 45 45 45 45 45
25 25 26 26 27 27 27 28 29 29 29 30 30 31 31 31 32 32 33 33 34 35 36 36 38 39 40 41 42 42 43 43 44 44 44 44 45 45 45 45 45 45
26 27 27 27 28 28 29 29 30 30 30 31 31 32 32 32 33 33 33 34 34 34 35 35 36 37 38 39 40 41 42 43 43 44 44 44 45 45 45 45 45 45
28 28 28 28 29 29 30 30 31 31 32 32 32 33 33 34 34 34 34 34 35 35 35 36 36 36 37 38 39 40 41 41 42 43 43 44 44 44 45 45 45 45
29 30 30 30 31 31 31 32 32 33 33 33 34 34 35 35 35 35 36 36 36 36 36 37 37 37 37 38 38 39 40 41 41 42 43 43 44 44 45 45 46 46
31 31 32 32 33 33 33 33 34 34 35 35 36 36 36 37 37 37 38 38 38 38 38 38 39 39 39 39 40 40 40 41 42 42 43 44 44 45 45 46 46 46
32 33 33 34 34 34 35 35 35 36 36 36 37 37 38 38 39 39 39 40 40 40 40 41 41 41 41 41 41 42 42 43 43 43 44 44 45 45 45 46 46 47
34 34 35 35 36 36 37 37 38 38 38 38 39 39 39 40 40 41 41 41 42 42 42 43 43 43 43 44 44 44 44 44 45 45 45 46 46 46 47 47 47 48
35 36 36 37 38 38 39 39 39 40 40 40 41 41 41 41 42 42 42 43 43 43 44 44 44 45 45 46 46 46 46 46 46 47 47 47 47 48 48 48 49 49
36 37 37 38 38 39 40 40 41 41 41 42 42 42 42 42 43 43 43 44 44 44 45 45 45 46 47 47 47 48 48 48 48 49 49 49 49 49 49 50 50 50
37 38 38 39 40 40 41 41 42 42 43 43 43 43 44 44 44 44 44 45 45 45 46 46 46 47 47 48 48 49 49 50 50 50 50 51 51 51 51 52 52 52
39 40 40 40 41 41 42 43 43 44 44 44 45 45 45 45 45 46 46 46 46 47 47 47 47 48 48 49 49 50 51 51 51 51 52 52 52 53 53 53 54 54
42 42 43 43 43 44 44 44 45 45 46 46 46 46 47 47 47 47 48 48 48 48 49 49 49 50 50 50 51 51 52 52 53 53 54 54 54 54 55 55 55 55
44 45 45 46 46 47 47 47 47 48 48 48 48 48 49 49 49 49 50 50 50 50 50 51 51 51 52 52 52 53 53 53 54 54 55 55 55 56 56 56 56 56
46 47 47 48 48 49 49 49 50 50 51 51 51 51 51 51 52 52 52 52 52 52 52 53 53 53 53 53 53 53 53 54 54 55 55 56 56 56 57 57 57 57
48 48 49 50 50 50 51 51 51 52 52 52 53 53 53 54 54 54 54 54 54 54 54 55 54 54 54 54 54 55 55 55 56 56 57 57 57 57 58 58 58 58
50 50 51 51 52 52 52 53 53 53 53 54 54 54 55 55 55 55 55 55 55 56 56 56 56 56 56 56 57 57 57 57 57 58 58 58 58 58 59 59 59 60
52 52 53 53 53 54 54 54 54 54 55 55 55 55 56 56 56 56 56 56 56 56 56 57 57 57 57 58 58 58 58 58 58 58 59 59 59 59 59 60 60 60
Wind_Direction
257 257 257 257 256 256 256 256 255 255 254 254 254 255 256 255 255 254 253 252 252 252 252 252 253 253 254 254 254 254 255 255 255 255 255 255 255 255 256 256 256 257
257 257 257 257 257 256 256 256 256 256 255 255 256 256 257 257 256 255 255 254 253 253 253 252 253 253 254 255 255 255 255 255 255 255 255 255 255 255 255 256 256 256
258 258 257 257 257 256 256 256 256 256 256 256 257 257 257 257 257 256 255 254 254 254 254 254 254 254 255 255 255 255 255 255 255 255 256 256 256 256 256 256 256 256
259 259 258 257 257 257 257 257 257 256 256 256 257 257 258 258 258 257 257 256 255 255 255 255 256 256 255 255 255 255 256 256 256 256 256 256 256 256 256 256 257 257
261 260 259 259 259 259 258 258 258 258 257 257 257 258 258 258 258 258 258 257 257 257 257 257 256 256 256 256 256 256 256 256 256 256 256 256 256 257 257 257 257 257
262 262 261 260 260 260 260 260 260 259 259 258 258 258 258 258 258 258 258 258 258 257 257 257 257 257 257 257 257 257 257 257 256 256 256 256 256 257 257 257 258 258
264 264 262 262 261 261 261 261 261 261 260 260 259 259 259 259 259 259 259 259 258 258 258 258 258 258 258 258 258 258 257 257 257 257 257 257 257 257 257 258 258 258
265 264 264 263 263 263 263 262 262 262 261 261 261 261 261 260 260 260 260 259 259 258 258 258 258 258 258 258 258 258 258 258 258 257 257 258 257 257 257 258 258 257
267 266 266 266 266 266 265 265 264 263 263 263 262 262 262 262 261 261 260 260 259 259 259 259 258 258 258 258 258 258 258 258 258 258 258 258 258 258 258 258 258 258
269 269 269 269 268 268 268 267 266 265 265 264 264 263 263 263 263 262 262 261 260 260 260 260 259 259 259 259 259 259 259 259 259 259 258 258 258 259 259 259 259 259
271 271 271 271 270 270 269 269 268 267 267 266 266 265 265 264 264 263 263 262 262 262 261 261 260 260 260 260 259 259 259 259 259 259 259 259 259 259 259 259 259 259
272 271 272 272 271 271 270 270 269 269 268 268 267 266 266 265 265 265 264 264 264 263 263 262 262 261 261 261 260 260 260 260 260 260 260 260 260 259 259 259 259 259
274 273 273 273 272 272 271 271 270 270 270 269 268 267 267 266 266 265 265 265 264 264 264 264 263 263 262 262 262 261 261 261 260 260 260 260 260 260 260 260 260 260
274 274 274 274 274 273 273 272 272 271 271 270 269 268 267 267 266 266 265 265 265 265 264 264 264 264 263 263 263 263 262 262 261 261 261 261 261 261 261 261 261 261
275 275 274 275 275 275 274 274 273 273 272 271 271 270 269 268 267 267 266 266 266 266 265 265 265 265 264 264 264 264 263 263 262 262 262 262 261 262 262 262 262 262
275 275 275 275 275 275 275 275 274 274 273 272 272 271 270 269 268 268 268 267 267 267 267 266 266 266 266 266 265 265 264 264 263 263 263 263 263 263 263 263 263 263
276 276 276 276 275 275 275 275 274 274 274 273 273 272 271 271 270 269 269 268 268 268 268 267 267 267 267 267 266 266 265 264 264 264 263 263 264 264 264 264 264 264
277 276 276 276 276 275 275 275 274 274 274 274 273 273 272 272 271 271 270 270 269 269 268 268 267 268 268 268 267 267 266 265 265 264 264 264 264 264 265 265 265 265
278 277 277 277 276 276 276 275 275 275 275 274 273 273 272 272 272 272 272 271 271 270 270 269 268 268 269 269 268 268 267 266 265 265 265 265 265 265 265 265 266 266
279 278 278 278 277 277 276 276 276 275 275 274 273 273 273 272 272 272 272 272 272 271 271 270 269 270 270 270 269 268 268 267 266 265 265 266 266 266 266 266 266 266
279 279 279 278 278 278 277 277 277 276 276 275 274 274 273 273 272 272 272 272 272 272 271 271 270 271 271 270 270 269 269 268 267 266 266 266 267 267 267 267 267 267
279 279 279 279 279 279 278 278 277 277 276 275 275 274 274 273 273 273 273 272 272 272 272 271 271 272 272 271 271 271 270 269 268 267 267 267 267 267 267 267 267 267
280 279 279 279 279 279 278 278 277 277 276 275 275 274 274 274 274 274 273 273 273 273 272 272 272 272 272 272 271 271 270 269 269 268 268 268 268 267 267 267 267 267
280 280 280 280 279 279 279 278 277 276 276 275 274 274 274 274 274 273 273 273 273 273 272 272 272 272 272 272 272 271 271 270 270 269 269 269 268 268 268 268 268 268
280 280 280 280 279 279 278 278 277 276 276 275 274 274 274 274 274 273 273 273 272 272 272 272 272 271 272 272 272 272 271 271 270 270 270 270 269 269 269 269 269 269
281 281 280 280 280 279 278 278 277 276 276 275 275 275 274 274 274 273 273 273 272 272 272 272 272 271 271 272 272 271 271 271 270 270 270 270 270 270 269 269 269 269